Find Starlink 31281

NORAD ID: 59077 Int'l Des: 2024-041 Owner: SPXS Country: US Constellation: starlink operational
LEOCIRCULAR

Live-Position

3D-Globus wird geladen...

Über Starlink 31281

Beschreibung wird geladen...

Nächste Überflüge

Passes for default location (London). Set your location on the main map for personalized predictions.

Höhenverlauf

Loading altitude history...

Zweizeiliger Elementsatz

1 59077U 24041D 26121.38125544 -.00000504 00000-0 -87987-5 0 9998
2 59077 43.0028 12.8221 0001682 279.8060 80.2602 15.27585340122386
Epoch: 1. Mai 2026 • Age: 9 hours

Aktueller Status

Höhe 487.1 km
Geschwindigkeit 7.62 km/s
Subsatellitenpunkt -19.81°S, 85.04°E
Startdatum 29. Feb. 2024
Alter 2.1 years
Typ internet

Technische Details

Klassifizierung Payload
Masse 730.00 kg
Trockenmasse 700.00 kg
Gesamtmasse 730.00 kg
Länge 0.30 m
Durchmesser 4.10 m
Spannweite 29.00 m
Form Box + pan
Hersteller SPXS
Bus-Typ Starlink V2M
Phasenstatus In Orbit
Besitzer/Staat SPXS/US

Most Searched